User: anonymous   Login
Location: Unspecified
(0.0000°N, 0.0000°E)
Time: 00:41:48
(UTC+00:00)
Language:

Transit 2A Rocket - Orbit

View from above orbital plane
View from above orbital plane
View from above satellite
View from above satellite

Ground track
Ground track

The orbit data is extracted from the following two-line orbital elements,

1 00047U 60007C   16146.48522333  .00000029  00000-0  31464-4 0  9995
2 00047  66.6639 162.2398 0234612 307.6455  50.3564 14.41826649921165
Epoch (UTC): 25 May 2016 11:38:43
Eccentricity: 0.0234612
inclination: 66.6639°
perigee height: 585 km
apogee height: 920 km
right ascension of ascending node: 162.2398°
argument of perigee: 307.6455°
revolutions per day: 14.41826649
mean anomaly at epoch: 50.3564°
orbit number at epoch: 92116

The dashed part of the orbit path shows where the satellite is in the earth's shadow,  

DLR